Weather History for NFFN - March, 2013

Change the Weather History Date:

Tuesday, March 5, 2013

  Actual Average Record
Temperature  
Mean Temperature 79 °F -  
Max Temperature 84 °F 86 °F 91 °F (1998)
Min Temperature 74 °F 73 °F 71 °F (2001)
Cooling Degree Days 14    
Growing Degree Days 29 (Base 50)    
Moisture  
Dew Point 77 °F    
Average Humidity 93    
Maximum Humidity 100    
Minimum Humidity 79    
Precipitation  
Precipitation 0.31 in 0.39 in - ()
Sea Level Pressure  
Sea Level Pressure 29.68 in    
Wind  
Wind Speed 4 mph ()    
Max Wind Speed 15 mph    
Max Gust Speed -    
Visibility 7.2 miles    
Events Rain    
Averages and records for this station are not official NWS values.
T = Trace of Precipitation, MM = Missing Value Source: Averaged Metar Reports

Daily Weather History Graph

Daily Weather History Graph

Search for Another Location

Airport or City:

Trip Planner

Search our weather history database for the weather conditions in past years. The results will help you decide how hot, cold, wet, or windy it might be!

Date:

Astronomy

Mar. 05, 2013 Rise Set
Actual Time 6:10 AM FJT 6:32 PM FJT
Civil Twilight 5:48 AM FJT 6:54 PM FJT
Nautical Twilight 5:22 AM FJT 7:20 PM FJT
Astronomical Twilight 4:57 AM FJT 7:46 PM FJT
Moon No Moon Rise 12:46 PM FJT (3/5)
Length of Visible Light 13h 06m
Length of Day
12h 22m
Waning Gibbous, 49% of the Moon is Illuminated
Mar 5
Waning Gibbous
Mar 12
New
Mar 20
First Quarter
Mar 27
Full
Apr 3
Last Quarter

Hourly Weather History & Observations

Time (FJT) Temp. Heat Index Dew Point Humidity Pressure Visibility Wind Dir Wind Speed Gust Speed Precip Events Conditions
12:00 AM 77 °F - 76 °F 95% 29.76 in 12 mi Calm Calm - -   Partly Cloudy
12:00 AM 77.0 °F - 75.2 °F 94% 29.74 in 6.2 mi Calm Calm - N/A   Scattered Clouds
1:00 AM 77.0 °F - 75.2 °F 94% 29.74 in 6.2 mi Calm Calm - N/A   Scattered Clouds
2:00 AM 77.0 °F - 75.2 °F 94% 29.71 in 6.2 mi Calm Calm - N/A   Scattered Clouds
3:00 AM 76 °F - 76 °F 98% 29.71 in 12 mi Calm Calm - - Rain Light Rain
3:00 AM 77.0 °F - 75.2 °F 94% 29.71 in 6.2 mi Calm Calm - N/A   Mostly Cloudy
4:00 AM 75.2 °F - 75.2 °F 100% 29.68 in 6.2 mi Calm Calm - N/A   Mostly Cloudy
5:00 AM 75.2 °F - 75.2 °F 100% 29.71 in 6.2 mi Calm Calm - N/A   Scattered Clouds
6:00 AM 75 °F - 74 °F 96% 29.71 in 12 mi Calm Calm - -   Partly Cloudy
6:00 AM 75.2 °F - 73.4 °F 94% 29.71 in 6.2 mi Calm Calm - N/A   Scattered Clouds
7:00 AM 75.2 °F - 75.2 °F 100% 29.71 in 6.2 mi Calm Calm - N/A   Scattered Clouds
8:00 AM 78.8 °F - 77.0 °F 94% 29.74 in 6.2 mi Calm Calm - N/A   Scattered Clouds
9:00 AM 81 °F - 78 °F 88% 29.74 in 12 mi NNW 5.8 mph - - Rain Light Rain
9:00 AM 80.6 °F 88.1 °F 78.8 °F 94% 29.74 in 6.2 mi NNW 5.8 mph - N/A Rain Light Rain
10:00 AM 80.6 °F 88.1 °F 78.8 °F 94% 29.71 in 6.2 mi NW 9.2 mph - N/A Rain Light Rain
11:00 AM 84.2 °F 96.1 °F 78.8 °F 84% 29.71 in 6.2 mi WNW 11.5 mph - N/A   Scattered Clouds
12:00 PM 83 °F - 78 °F 82% 29.70 in 12 mi WNW 15.0 mph - -   Partly Cloudy
12:00 PM 84.2 °F 96.1 °F 78.8 °F 84% 29.68 in 6.2 mi WNW 15.0 mph - N/A   Mostly Cloudy
1:00 PM 84.2 °F 94.1 °F 77.0 °F 79% 29.68 in 6.2 mi WNW 13.8 mph - N/A   Mostly Cloudy
2:00 PM 84.2 °F 96.1 °F 78.8 °F 84% 29.65 in 6.2 mi WNW 11.5 mph - N/A   Mostly Cloudy
3:00 PM 84 °F - 79 °F 82% 29.64 in 12 mi NW 12.7 mph - - Rain Light Rain Showers
3:00 PM 84.2 °F 96.1 °F 78.8 °F 84% 29.62 in 6.2 mi NW 12.7 mph - N/A   Mostly Cloudy
3:35 PM 84.2 °F 96.1 °F 78.8 °F 84% 29.62 in 3.7 mi WNW 12.7 mph - N/A Rain Light Rain Showers
4:00 PM 78.8 °F - 77.0 °F 94% 29.62 in 5.0 mi WNW 10.4 mph - N/A Rain Light Rain Showers
5:00 PM 78.8 °F - 78.8 °F 100% 29.62 in 3.7 mi NW 12.7 mph - N/A Rain Light Rain Showers
5:30 PM 78.8 °F - 78.8 °F 100% 29.62 in 6.2 mi North 5.8 mph - N/A Rain Light Rain Showers
6:00 PM 80 °F - 78 °F 93% 29.64 in 6 mi SSW 6.9 mph - - Rain Light Rain Showers
6:00 PM 78.8 °F - 78.8 °F 100% 29.62 in 6.2 mi SSW 6.9 mph - N/A Rain Light Rain Showers
7:00 PM 78.8 °F - 77.0 °F 94% 29.65 in 6.2 mi NNE 3.5 mph - N/A   Mostly Cloudy
8:00 PM 77.0 °F - 77.0 °F 100% 29.65 in 6.2 mi East 5.8 mph - N/A   Mostly Cloudy
9:00 PM 77 °F - 76 °F 97% 29.67 in 12 mi East 4.6 mph - -   Partly Cloudy
9:00 PM 77.0 °F - 77.0 °F 100% 29.65 in 6.2 mi East 4.6 mph - N/A   Scattered Clouds
10:00 PM 77.0 °F - 75.2 °F 94% 29.65 in 6.2 mi SE 3.5 mph - N/A   Scattered Clouds
11:00 PM 77.0 °F - 75.2 °F 94% 29.65 in 6.2 mi Calm Calm - N/A   Scattered Clouds